[[{"header":{"parameterUnit":"m.s-1","parameterCategory":1,"la1":30.2991,"la2":30.254,"lo1":-89.0895,"lo2":-89.0444,"dy":0.0017,"dx":0.0017,"nx":28,"ny":28,"refTime":"2025-03-24T03:00:00:Z","depth":0,"parameterNumber":2,"parameterNumberName":"U-component_of_WINDS"},"data":[0,0,0,0,0,0,0,0,0,0,0,0,0,0,0,0,0,0,0,0,0,0,0,0,0,0,0,0,0,0,0,0,0,0,0,0,0,0,0,0,0,0,0,0,0,0,0,0,0,0,0,0,0,0,0,0,0,0,0.0385,0.0385,0,0.0427,0.0427,0.0428,0.0444,0.0444,0.0444,0.0443,0.0486,0.0487,0.0489,0,0,0,0,0,0,0,0,0,0,0,0,0,0.0317,0.0318,0.0385,0.0385,0.0386,0.0427,0.0427,0.0428,0.0444,0.0444,0.0444,0.0443,0.0486,0.0487,0.0489,0,0,0,0,0,0,0,0,0,0,0,0,0,0.0352,0.0319,0.0385,0.0399,0.04,0.0427,0.0427,0.0428,0.0444,0.0444,0.0444,0.0443,0.0485,0.0487,0.0489,0.0504,0,0,0.0495,0.0495,0,0,0,0,0,0,0,0,0.035,0.0354,0.0396,0.0398,0.04,0.043,0.0419,0.0454,0.0444,0.0427,0.0443,0.0443,0.0468,0.0471,0.0479,0.0506,0.0508,0.0495,0.0496,0.0497,0.0497,0,0,0,0,0,0,0,0.0347,0.0352,0.0401,0.0397,0.0399,0.0403,0.0407,0.0426,0.0448,0.0429,0.043,0.0435,0.0468,0.0477,0.048,0.0509,0.0495,0.0496,0.0498,0.0498,0.0552,0.0552,0,0,0,0,0,0,0.0343,0.035,0.04,0.0403,0.0374,0.0404,0.0409,0.042,0.0448,0.0452,0.0435,0.0435,0.0474,0.0478,0.0482,0.0502,0.0497,0.0499,0.05,0.0551,0.0552,0.0552,0,0,0,0,0,0,0.0341,0.0347,0.0398,0.0377,0.0384,0.0405,0.0418,0.0421,0.043,0.0453,0.0456,0.044,0.0474,0.0479,0.0499,0.0504,0.0499,0.0501,0.0551,0.0551,0.0552,0.0543,0,0,0,0,0,0,0.0339,0.0346,0.0352,0.0377,0.0385,0.0415,0.0418,0.0422,0.0433,0.0434,0.0458,0.0462,0.0474,0.0496,0.0501,0.0507,0.0503,0.0551,0.0551,0.0552,0.0543,0.0543,0.0543,0,0,0,0,0,0.0337,0.0348,0.0353,0.0359,0.0393,0.0415,0.0419,0.0434,0.0434,0.044,0.0455,0.0461,0.0503,0.0498,0.0503,0.051,0.055,0.0551,0.0552,0.0543,0.0543,0.0543,0,0,0,0,0,0,0.0323,0.0351,0.0357,0.0376,0.0393,0.0418,0.0426,0.0433,0.045,0.045,0.0467,0.0472,0.0491,0.0502,0.0496,0.0527,0.0527,0.0529,0.0519,0.0519,0.0519,0.0516,0.0504,0,0,0,0,0,0.0322,0.0338,0.0362,0.0377,0.0385,0.0404,0.0414,0.0424,0.0442,0.0449,0.0465,0.0482,0.0499,0.0509,0.0526,0.0545,0.0551,0.0552,0.0552,0.0552,0.0554,0.0565,0.0566,0.0554,0.0554,0.0554,0,0,0.0321,0.0338,0.0347,0.0374,0.0388,0.0404,0.041,0.0426,0.0438,0.0451,0.0471,0.0483,0.0503,0.0523,0.0532,0.0533,0.0558,0.0553,0.0553,0.0554,0.0566,0.0567,0.0568,0.0555,0.0554,0.0554,0,0,0.0326,0.0341,0.0355,0.037,0.0391,0.0404,0.0408,0.0431,0.044,0.046,0.047,0.0485,0.0513,0.0528,0.0539,0.055,0.0557,0.0555,0.0556,0.0567,0.0568,0.0569,0.0574,0.0576,0.0557,0.0557,0.0557,0,0.0322,0.0346,0.0362,0.0378,0.039,0.0403,0.0418,0.0431,0.0457,0.0465,0.0465,0.0502,0.0516,0.054,0.0543,0.0551,0.0556,0.0553,0.0567,0.0568,0.0569,0.0574,0.0576,0.0556,0.0556,0.0556,0.0556,0,0.034,0.0357,0.0366,0.0391,0.0404,0.042,0.0437,0.0449,0.0457,0.047,0.0491,0.0509,0.053,0.0536,0.0544,0.056,0.056,0.0564,0.0564,0.057,0.0575,0.0576,0.0556,0.0556,0.0556,0.0556,0,0,0.0338,0.0372,0.0375,0.0387,0.0412,0.0426,0.0442,0.0463,0.0473,0.049,0.0504,0.0528,0.0532,0.0544,0.0554,0.0564,0.0573,0.0566,0.0567,0.0567,0.0593,0.0591,0.0593,0.0578,0.0578,0.0579,0.0592,0,0.0347,0.0377,0.0392,0.0415,0.0432,0.0445,0.0459,0.0476,0.0488,0.0504,0.0517,0.0534,0.0537,0.0545,0.0555,0.057,0.0579,0.0569,0.0592,0.0592,0.0587,0.0595,0.0593,0.0604,0.0594,0.0594,0.0594,0,0.0362,0.038,0.0406,0.043,0.0437,0.045,0.0471,0.0485,0.0505,0.0513,0.0527,0.0537,0.0555,0.0554,0.0579,0.0572,0.0582,0.0591,0.0592,0.0595,0.0594,0.0599,0.0608,0.061,0.0597,0.0597,0.0597,0,0.0358,0.0389,0.0409,0.0419,0.0447,0.0456,0.0468,0.0487,0.0499,0.0518,0.0526,0.0545,0.0556,0.0571,0.0586,0.0584,0.061,0.061,0.0618,0.0617,0.0623,0.0622,0.0634,0.0628,0.0628,0.0628,0.0628,0,0.0368,0.0383,0.0408,0.042,0.0437,0.0454,0.0471,0.0484,0.0502,0.0516,0.0528,0.0542,0.0561,0.0577,0.0589,0.0608,0.0612,0.062,0.0623,0.0619,0.0618,0.0626,0.0626,0.0629,0.0629,0.0628,0.0628,0,0.0367,0.0384,0.0406,0.0432,0.0439,0.0451,0.0472,0.0485,0.0498,0.0516,0.0522,0.0542,0.0562,0.0579,0.0604,0.0612,0.0632,0.0635,0.0626,0.0627,0.0634,0.0634,0.0652,0.0656,0.0647,0.0647,0.0647,0,0.0372,0.0384,0.0411,0.0422,0.0434,0.0452,0.0465,0.0482,0.0494,0.0518,0.0528,0.0548,0.0566,0.0596,0.0613,0.0633,0.0637,0.0643,0.064,0.0636,0.0638,0.0638,0.0639,0.0643,0.0643,0.0643,0.0643,0,0.0379,0.0387,0.0405,0.0426,0.0441,0.0458,0.0476,0.0484,0.0505,0.0518,0.0539,0.0552,0.0579,0.0599,0.0621,0.0633,0.0642,0.0643,0.0646,0.0643,0.0637,0.0641,0.0627,0.0643,0.0643,0.0643,0.0643,0.0643,0.0381,0.0393,0.0414,0.0434,0.045,0.0466,0.0479,0.0494,0.0512,0.0535,0.0544,0.0565,0.0585,0.0616,0.0628,0.0645,0.0646,0.065,0.0651,0.0652,0.0652,0.0634,0.0649,0.0649,0.0649,0.0649,0.0649,0,0.0389,0.0404,0.0422,0.0447,0.0463,0.047,0.049,0.0502,0.0521,0.0539,0.0557,0.058,0.06,0.062,0.0641,0.065,0.0655,0.0655,0.0655,0.0658,0.0649,0.0645,0.0652,0.0652,0.0652,0.0652,0.0652,0.0652,0.0395,0.0416,0.0427,0.0456,0.047,0.0492,0.0503,0.0518,0.0533,0.0559,0.0576,0.0589,0.0607,0.063,0.0649,0.0654,0.0661,0.0661,0.0667,0.0659,0.0658,0.0658,0.0654,0.0663,0.0663,0.0675,0.0675,0.0675]},{"header":{"parameterUnit":"m.s-1","parameterCategory":1,"la1":30.2991,"la2":30.254,"lo1":-89.0895,"lo2":-89.0444,"dy":0.0017,"dx":0.0017,"nx":28,"ny":28,"refTime":"2025-03-24T03:00:00:Z","depth":0,"parameterNumber":3,"parameterNumberName":"V-component_of_WINDS"},"data":[0,0,0,0,0,0,0,0,0,0,0,0,0,0,0,0,0,0,0,0,0,0,0,0,0,0,0,0,0,0,0,0,0,0,0,0,0,0,0,0,0,0,0,0,0,0,0,0,0,0,0,0,0,0,0,0,0,0,3.6945,3.6947,0,3.7093,3.7094,3.7096,3.7122,3.7121,3.7119,3.7118,3.7263,3.7268,3.7273,0,0,0,0,0,0,0,0,0,0,0,0,0,3.6681,3.6686,3.6945,3.6947,3.6949,3.7092,3.7094,3.7096,3.7122,3.712,3.7119,3.7118,3.7262,3.7268,3.7274,0,0,0,0,0,0,0,0,0,0,0,0,0,3.6809,3.6687,3.6945,3.6979,3.6984,3.7092,3.7095,3.7097,3.7122,3.712,3.7119,3.7117,3.726,3.7267,3.7274,3.7357,0,0,3.7297,3.7301,0,0,0,0,0,0,0,0,3.6801,3.6818,3.6972,3.6977,3.6982,3.7087,3.7055,3.7184,3.7123,3.7069,3.7118,3.7116,3.7206,3.7218,3.7249,3.7364,3.737,3.7298,3.7303,3.7306,3.7308,0,0,0,0,0,0,0,3.6792,3.6812,3.7003,3.6974,3.698,3.6985,3.7002,3.7079,3.7146,3.7074,3.7076,3.7094,3.7208,3.7242,3.7253,3.7372,3.7298,3.7304,3.7309,3.7312,3.7565,3.7568,0,0,0,0,0,0,3.6778,3.6804,3.6999,3.7008,3.6886,3.6992,3.701,3.7055,3.7145,3.7157,3.7095,3.7094,3.723,3.7244,3.7258,3.7364,3.7306,3.7313,3.7317,3.7563,3.7566,3.7568,0,0,0,0,0,0,3.6772,3.6795,3.6993,3.6907,3.6932,3.6998,3.7049,3.7059,3.7093,3.7161,3.7173,3.7118,3.7229,3.7247,3.7333,3.7369,3.7316,3.7323,3.7561,3.7564,3.7567,3.7573,0,0,0,0,0,0,3.6765,3.6793,3.6826,3.6908,3.6937,3.7067,3.7051,3.7063,3.7106,3.7107,3.7185,3.7197,3.7229,3.7322,3.7341,3.7378,3.7329,3.7558,3.7562,3.7566,3.757,3.7577,3.7582,0,0,0,0,0,3.6755,3.682,3.6828,3.6851,3.698,3.7069,3.7086,3.7124,3.7109,3.7143,3.7187,3.7194,3.7361,3.7331,3.7352,3.7392,3.7556,3.7561,3.7566,3.7568,3.7575,3.7582,0,0,0,0,0,0,3.6739,3.6831,3.6841,3.6934,3.6994,3.7073,3.7117,3.713,3.7193,3.7191,3.7233,3.725,3.7335,3.7371,3.7336,3.7478,3.7457,3.7467,3.7452,3.7459,3.7465,3.7455,3.7335,0,0,0,0,0,3.6746,3.6813,3.6889,3.6964,3.6994,3.705,3.709,3.7115,3.7177,3.7202,3.7252,3.7311,3.7377,3.742,3.7484,3.7575,3.7593,3.7613,3.7619,3.7623,3.7632,3.7685,3.7695,3.7585,3.7585,3.7585,0,0,3.6762,3.6821,3.686,3.6963,3.7012,3.7079,3.7071,3.7141,3.7192,3.7212,3.7298,3.7337,3.7405,3.7495,3.7537,3.7528,3.7666,3.763,3.7633,3.7639,3.7691,3.7701,3.7711,3.7588,3.7588,3.7587,0,0,3.6826,3.6876,3.6946,3.6996,3.7072,3.7109,3.7125,3.7204,3.7231,3.7318,3.7336,3.7394,3.7507,3.7556,3.7596,3.768,3.769,3.7699,3.773,3.7781,3.779,3.7798,3.783,3.7841,3.7707,3.7707,3.7707,0,3.6835,3.6939,3.6979,3.7051,3.7096,3.712,3.7191,3.7236,3.7328,3.7358,3.7347,3.7491,3.7538,3.7641,3.7662,3.7692,3.7713,3.7691,3.7786,3.7794,3.7802,3.7833,3.7845,3.7708,3.7707,3.7707,3.7707,0,3.6948,3.702,3.7067,3.7158,3.7208,3.7278,3.7329,3.7374,3.7394,3.7432,3.7521,3.7579,3.7657,3.7682,3.7701,3.7789,3.7781,3.7777,3.7758,3.7813,3.7843,3.7855,3.7709,3.7709,3.7708,3.7708,0,0,3.7006,3.7121,3.7138,3.7181,3.7266,3.7322,3.7393,3.7471,3.7511,3.7572,3.7634,3.7729,3.7727,3.7772,3.7796,3.7841,3.7907,3.7832,3.7834,3.7846,3.801,3.8014,3.8027,3.7913,3.7916,3.7918,3.8005,0,3.7082,3.7214,3.7253,3.7362,3.743,3.7453,3.7516,3.7574,3.7612,3.7673,3.7713,3.7782,3.7772,3.78,3.7845,3.789,3.7941,3.7883,3.7971,3.7974,3.7956,3.8043,3.8047,3.8127,3.8017,3.8019,3.802,0,3.7189,3.7257,3.7374,3.7454,3.7483,3.7539,3.7615,3.7673,3.774,3.7764,3.7816,3.7837,3.7911,3.7886,3.799,3.795,3.7988,3.8015,3.8019,3.8031,3.8002,3.8059,3.8153,3.8166,3.8039,3.8037,3.8036,0,3.7223,3.7343,3.743,3.7465,3.7559,3.7598,3.7638,3.7704,3.7749,3.7815,3.7845,3.7917,3.7957,3.8012,3.8052,3.803,3.8153,3.8131,3.8176,3.8175,3.8203,3.8201,3.8307,3.8223,3.8223,3.8222,3.8222,0,3.7305,3.7376,3.7447,3.75,3.7581,3.7624,3.7702,3.7743,3.7802,3.7863,3.7886,3.7942,3.7991,3.8053,3.8084,3.8167,3.8184,3.8206,3.8214,3.8206,3.8203,3.8233,3.8229,3.8226,3.8225,3.8224,3.8224,0,3.7358,3.7407,3.7504,3.7586,3.7608,3.7664,3.7734,3.7786,3.7825,3.7902,3.7922,3.7982,3.8058,3.8103,3.8196,3.8218,3.831,3.8314,3.8289,3.8293,3.8337,3.8333,3.8467,3.8488,3.8387,3.8388,3.8389,0,3.7408,3.7464,3.7554,3.7598,3.764,3.771,3.7757,3.7801,3.785,3.7931,3.7974,3.8051,3.8116,3.8235,3.8286,3.8359,3.8366,3.8408,3.8377,3.8368,3.837,3.8368,3.8374,3.8414,3.8415,3.8416,3.8416,0,3.7494,3.7516,3.7585,3.7664,3.772,3.7783,3.7845,3.788,3.7934,3.7987,3.8066,3.8116,3.8214,3.8291,3.8369,3.8409,3.8422,3.8425,3.844,3.8434,3.8418,3.843,3.8306,3.8423,3.8422,3.8422,3.8421,3.8421,3.7549,3.7601,3.7673,3.7749,3.7802,3.786,3.7915,3.7961,3.8028,3.8114,3.8135,3.8218,3.8284,3.839,3.8432,3.8497,3.849,3.8511,3.8517,3.8522,3.8525,3.8406,3.8511,3.8511,3.8511,3.851,3.851,0,3.7638,3.7686,3.7756,3.7845,3.7905,3.7914,3.7984,3.8033,3.8107,3.8169,3.8233,3.8324,3.8399,3.8457,3.8534,3.8575,3.8583,3.8594,3.8592,3.8602,3.8525,3.8506,3.8586,3.8586,3.8586,3.8586,3.8586,3.8586,3.7692,3.7782,3.7813,3.7929,3.7975,3.806,3.8099,3.8153,3.8203,3.8305,3.8369,3.8406,3.8467,3.8548,3.8618,3.8633,3.8661,3.8671,3.8687,3.8615,3.8607,3.8599,3.8582,3.8676,3.8676,3.8759,3.876,3.876]}]]